Time,TemperatureF,DewpointF,PressureIn,WindDirection,WindDirectionDegrees,WindSpeedMPH,WindSpeedGustMPH,Humidity,HourlyPrecipIn,Conditions,Clouds,dailyrainin,SoftwareType,DateUTC
2013-05-06 00:00:00,59.0,25.9,30.03,East,90,4.0,13.0,28,0.00,,,0.00,Weather View 32 v70,2013-05-06 06:00:00,
2013-05-06 00:05:00,59.0,25.9,30.03,SE,135,3.0,13.0,28,0.00,,,0.00,Weather View 32 v70,2013-05-06 06:05:00,
2013-05-06 00:10:00,59.0,25.9,30.02,SSE,157,2.0,13.0,28,0.00,,,0.00,Weather View 32 v70,2013-05-06 06:10:00,
2013-05-06 00:15:00,59.0,25.9,30.02,SE,135,3.0,13.0,28,0.00,,,0.00,Weather View 32 v70,2013-05-06 06:15:00,
2013-05-06 00:20:00,59.0,26.7,30.02,SE,135,2.0,13.0,29,0.00,,,0.00,Weather View 32 v70,2013-05-06 06:20:00,
2013-05-06 00:25:00,59.0,26.7,30.02,East,90,6.0,13.0,29,0.00,,,0.00,Weather View 32 v70,2013-05-06 06:25:00,
2013-05-06 00:30:00,59.0,26.7,30.02,East,90,3.0,13.0,29,0.00,,,0.00,Weather View 32 v70,2013-05-06 06:30:00,
2013-05-06 00:35:00,59.0,27.5,30.02,East,90,6.0,13.0,30,0.00,,,0.00,Weather View 32 v70,2013-05-06 06:35:00,
2013-05-06 00:40:00,59.0,27.5,30.02,East,90,5.0,11.0,30,0.00,,,0.00,Weather View 32 v70,2013-05-06 06:40:00,
2013-05-06 00:45:00,59.0,28.3,30.02,ENE,67,7.0,11.0,31,0.00,,,0.00,Weather View 32 v70,2013-05-06 06:45:00,
2013-05-06 00:50:00,59.0,28.3,30.03,East,90,4.0,11.0,31,0.00,,,0.00,Weather View 32 v70,2013-05-06 06:50:00,
2013-05-06 00:55:00,59.0,28.3,30.03,East,90,4.0,11.0,31,0.00,,,0.00,Weather View 32 v70,2013-05-06 06:55:00,
2013-05-06 01:00:00,58.0,28.2,30.02,ENE,67,5.0,11.0,32,0.00,,,0.00,Weather View 32 v70,2013-05-06 07:00:00,
2013-05-06 01:05:00,58.0,29.0,30.02,East,90,5.0,11.0,33,0.00,,,0.00,Weather View 32 v70,2013-05-06 07:05:00,
2013-05-06 01:10:00,58.0,29.0,30.02,East,90,6.0,10.0,33,0.00,,,0.00,Weather View 32 v70,2013-05-06 07:10:00,
2013-05-06 01:15:00,58.0,29.0,30.02,East,90,7.0,10.0,33,0.00,,,0.00,Weather View 32 v70,2013-05-06 07:15:00,
2013-05-06 01:20:00,58.0,29.7,30.02,East,90,6.0,10.0,34,0.00,,,0.00,Weather View 32 v70,2013-05-06 07:20:00,
2013-05-06 01:25:00,57.0,28.9,30.02,East,90,6.0,10.0,34,0.00,,,0.00,Weather View 32 v70,2013-05-06 07:25:00,
2013-05-06 01:30:00,57.0,28.9,30.02,East,90,7.0,10.0,34,0.00,,,0.00,Weather View 32 v70,2013-05-06 07:30:00,
2013-05-06 01:35:00,57.0,28.9,30.02,SE,135,5.0,13.0,34,0.00,,,0.00,Weather View 32 v70,2013-05-06 07:35:00,
2013-05-06 01:40:00,57.0,29.6,30.01,ESE,112,5.0,13.0,35,0.00,,,0.00,Weather View 32 v70,2013-05-06 07:40:00,
2013-05-06 01:45:00,57.0,29.6,30.01,East,90,4.0,13.0,35,0.00,,,0.00,Weather View 32 v70,2013-05-06 07:45:00,
2013-05-06 01:50:00,57.0,29.6,30.02,East,90,4.0,13.0,35,0.00,,,0.00,Weather View 32 v70,2013-05-06 07:50:00,
2013-05-06 01:55:00,57.0,30.3,30.02,East,90,3.0,13.0,36,0.00,,,0.00,Weather View 32 v70,2013-05-06 07:55:00,
2013-05-06 02:00:00,56.0,29.4,30.01,East,90,3.0,13.0,36,0.00,,,0.00,Weather View 32 v70,2013-05-06 08:00:00,
2013-05-06 02:05:00,56.0,30.7,30.01,SE,135,4.0,13.0,38,0.00,,,0.00,Weather View 32 v70,2013-05-06 08:05:00,
2013-05-06 02:10:00,56.0,30.7,30.01,ESE,112,4.0,13.0,38,0.00,,,0.00,Weather View 32 v70,2013-05-06 08:10:00,
2013-05-06 02:15:00,56.0,30.7,30.01,SE,135,6.0,13.0,38,0.00,,,0.00,Weather View 32 v70,2013-05-06 08:15:00,
2013-05-06 02:20:00,56.0,30.7,30.01,East,90,9.0,13.0,38,0.00,,,0.00,Weather View 32 v70,2013-05-06 08:20:00,
2013-05-06 02:25:00,56.0,30.7,30.01,East,90,8.0,13.0,38,0.00,,,0.00,Weather View 32 v70,2013-05-06 08:25:00,
2013-05-06 02:30:00,56.0,30.7,30.01,ENE,67,7.0,13.0,38,0.00,,,0.00,Weather View 32 v70,2013-05-06 08:30:00,
2013-05-06 02:35:00,56.0,30.7,30.01,East,90,6.0,15.0,38,0.00,,,0.00,Weather View 32 v70,2013-05-06 08:35:00,
2013-05-06 02:40:00,56.0,30.7,30.01,East,90,4.0,15.0,38,0.00,,,0.00,Weather View 32 v70,2013-05-06 08:40:00,
2013-05-06 02:45:00,56.0,30.7,30.01,East,90,4.0,15.0,38,0.00,,,0.00,Weather View 32 v70,2013-05-06 08:45:00,
2013-05-06 02:50:00,56.0,30.7,30.00,East,90,7.0,15.0,38,0.00,,,0.00,Weather View 32 v70,2013-05-06 08:50:00,
2013-05-06 02:55:00,56.0,31.3,30.00,East,90,7.0,15.0,39,0.00,,,0.00,Weather View 32 v70,2013-05-06 08:55:00,
2013-05-06 03:00:00,56.0,31.3,30.01,East,90,8.0,15.0,39,0.00,,,0.00,Weather View 32 v70,2013-05-06 09:00:00,
2013-05-06 03:05:00,56.0,31.3,30.01,ENE,67,11.0,15.0,39,0.00,,,0.00,Weather View 32 v70,2013-05-06 09:05:00,
2013-05-06 03:10:00,56.0,31.3,30.01,East,90,9.0,15.0,39,0.00,,,0.00,Weather View 32 v70,2013-05-06 09:10:00,
2013-05-06 03:15:00,56.0,32.0,30.01,East,90,9.0,15.0,40,0.00,,,0.00,Weather View 32 v70,2013-05-06 09:15:00,
2013-05-06 03:20:00,56.0,31.3,30.00,East,90,8.0,15.0,39,0.00,,,0.00,Weather View 32 v70,2013-05-06 09:20:00,
2013-05-06 03:25:00,56.0,32.0,30.00,East,90,7.0,15.0,40,0.00,,,0.00,Weather View 32 v70,2013-05-06 09:25:00,
2013-05-06 03:30:00,56.0,32.0,30.00,East,90,6.0,15.0,40,0.00,,,0.00,Weather View 32 v70,2013-05-06 09:30:00,
2013-05-06 03:35:00,56.0,32.6,30.00,East,90,8.0,12.0,41,0.00,,,0.00,Weather View 32 v70,2013-05-06 09:35:00,
2013-05-06 03:40:00,55.0,31.7,30.01,East,90,8.0,12.0,41,0.00,,,0.00,Weather View 32 v70,2013-05-06 09:40:00,
2013-05-06 03:45:00,55.0,31.7,30.01,East,90,7.0,14.0,41,0.00,,,0.00,Weather View 32 v70,2013-05-06 09:45:00,
2013-05-06 03:50:00,56.0,32.6,30.00,East,90,14.0,14.0,41,0.00,,,0.00,Weather View 32 v70,2013-05-06 09:50:00,
2013-05-06 03:55:00,56.0,32.6,30.00,East,90,9.0,14.0,41,0.00,,,0.00,Weather View 32 v70,2013-05-06 09:55:00,
2013-05-06 04:00:00,56.0,33.2,30.00,ENE,67,9.0,15.0,42,0.00,,,0.00,Weather View 32 v70,2013-05-06 10:00:00,
2013-05-06 04:05:00,55.0,32.3,30.00,East,90,11.0,15.0,42,0.00,,,0.00,Weather View 32 v70,2013-05-06 10:05:00,
2013-05-06 04:10:00,55.0,32.3,30.01,East,90,6.0,15.0,42,0.00,,,0.00,Weather View 32 v70,2013-05-06 10:10:00,
2013-05-06 04:15:00,55.0,32.9,30.01,East,90,6.0,15.0,43,0.00,,,0.00,Weather View 32 v70,2013-05-06 10:15:00,
2013-05-06 04:20:00,55.0,32.9,30.01,East,90,9.0,15.0,43,0.00,,,0.00,Weather View 32 v70,2013-05-06 10:20:00,
2013-05-06 04:25:00,55.0,32.9,30.01,East,90,9.0,15.0,43,0.00,,,0.00,Weather View 32 v70,2013-05-06 10:25:00,
2013-05-06 04:30:00,55.0,32.9,30.01,East,90,10.0,15.0,43,0.00,,,0.00,Weather View 32 v70,2013-05-06 10:30:00,
2013-05-06 04:35:00,55.0,33.4,30.01,East,90,9.0,15.0,44,0.00,,,0.00,Weather View 32 v70,2013-05-06 10:35:00,
2013-05-06 04:40:00,55.0,33.4,30.00,East,90,12.0,17.0,44,0.00,,,0.00,Weather View 32 v70,2013-05-06 10:40:00,
2013-05-06 04:45:00,55.0,33.4,30.00,East,90,12.0,20.0,44,0.00,,,0.00,Weather View 32 v70,2013-05-06 10:45:00,
2013-05-06 04:50:00,55.0,34.6,29.99,East,90,17.0,20.0,46,0.00,,,0.00,Weather View 32 v70,2013-05-06 10:50:00,
2013-05-06 04:55:00,54.0,33.6,29.99,East,90,12.0,20.0,46,0.00,,,0.00,Weather View 32 v70,2013-05-06 10:55:00,
2013-05-06 05:00:00,55.0,33.4,29.99,East,90,14.0,21.0,44,0.00,,,0.00,Weather View 32 v70,2013-05-06 11:00:00,
2013-05-06 05:05:00,55.0,33.4,29.99,East,90,9.0,21.0,44,0.00,,,0.00,Weather View 32 v70,2013-05-06 11:05:00,
2013-05-06 05:10:00,55.0,33.4,29.99,East,90,9.0,21.0,44,0.00,,,0.00,Weather View 32 v70,2013-05-06 11:10:00,
2013-05-06 05:15:00,54.0,33.6,29.99,East,90,10.0,21.0,46,0.00,,,0.00,Weather View 32 v70,2013-05-06 11:15:00,
2013-05-06 05:20:00,54.0,34.7,30.00,East,90,14.0,22.0,48,0.00,,,0.00,Weather View 32 v70,2013-05-06 11:20:00,
2013-05-06 05:25:00,54.0,35.2,30.00,East,90,14.0,22.0,49,0.00,,,0.00,Weather View 32 v70,2013-05-06 11:25:00,
2013-05-06 05:30:00,53.0,34.3,30.00,East,90,8.0,22.0,49,0.00,,,0.00,Weather View 32 v70,2013-05-06 11:30:00,
2013-05-06 05:35:00,53.0,34.3,30.00,East,90,10.0,22.0,49,0.00,,,0.00,Weather View 32 v70,2013-05-06 11:35:00,
2013-05-06 05:40:00,53.0,34.3,30.00,East,90,10.0,22.0,49,0.00,,,0.00,Weather View 32 v70,2013-05-06 11:40:00,
2013-05-06 05:45:00,53.0,34.3,30.00,East,90,10.0,22.0,49,0.00,,,0.00,Weather View 32 v70,2013-05-06 11:45:00,
2013-05-06 05:50:00,53.0,34.3,30.00,East,90,11.0,22.0,49,0.00,,,0.00,Weather View 32 v70,2013-05-06 11:50:00,
2013-05-06 05:55:00,53.0,34.3,30.00,East,90,10.0,22.0,49,0.00,,,0.00,Weather View 32 v70,2013-05-06 11:55:00,
2013-05-06 06:00:00,53.0,35.3,30.00,ENE,67,6.0,22.0,51,0.00,,,0.00,Weather View 32 v70,2013-05-06 12:00:00,
2013-05-06 06:05:00,53.0,35.3,30.00,ENE,67,6.0,22.0,51,0.00,,,0.00,Weather View 32 v70,2013-05-06 12:05:00,
2013-05-06 06:10:00,53.0,35.3,30.01,East,90,7.0,22.0,51,0.00,,,0.00,Weather View 32 v70,2013-05-06 12:10:00,
2013-05-06 06:15:00,53.0,35.3,30.01,East,90,6.0,22.0,51,0.00,,,0.00,Weather View 32 v70,2013-05-06 12:15:00,
2013-05-06 06:20:00,53.0,35.3,30.00,East,90,17.0,21.0,51,0.00,,,0.00,Weather View 32 v70,2013-05-06 12:20:00,
2013-05-06 06:25:00,53.0,35.3,30.00,East,90,5.0,21.0,51,0.00,,,0.00,Weather View 32 v70,2013-05-06 12:25:00,
2013-05-06 06:30:00,53.0,35.3,30.02,ENE,67,8.0,18.0,51,0.00,,,0.00,Weather View 32 v70,2013-05-06 12:30:00,
2013-05-06 06:35:00,53.0,35.8,30.02,East,90,9.0,18.0,52,0.00,,,0.00,Weather View 32 v70,2013-05-06 12:35:00,
2013-05-06 06:40:00,53.0,36.3,30.02,East,90,8.0,18.0,53,0.00,,,0.00,Weather View 32 v70,2013-05-06 12:40:00,
2013-05-06 06:45:00,53.0,36.3,30.02,East,90,6.0,18.0,53,0.00,,,0.00,Weather View 32 v70,2013-05-06 12:45:00,
2013-05-06 06:50:00,53.0,36.8,30.04,SE,135,8.0,18.0,54,0.00,,,0.00,Weather View 32 v70,2013-05-06 12:50:00,
2013-05-06 06:55:00,53.0,36.8,30.04,SSE,157,5.0,18.0,54,0.00,,,0.00,Weather View 32 v70,2013-05-06 12:55:00,
2013-05-06 07:00:00,53.0,36.3,30.04,South,180,10.0,18.0,53,0.00,,,0.00,Weather View 32 v70,2013-05-06 13:00:00,
2013-05-06 07:05:00,53.0,35.8,30.04,SE,135,10.0,18.0,52,0.00,,,0.00,Weather View 32 v70,2013-05-06 13:05:00,
2013-05-06 07:10:00,53.0,36.3,30.05,South,180,5.0,18.0,53,0.00,,,0.00,Weather View 32 v70,2013-05-06 13:10:00,
2013-05-06 07:15:00,53.0,34.3,30.05,SW,225,10.0,18.0,49,0.00,,,0.00,Weather View 32 v70,2013-05-06 13:15:00,
2013-05-06 07:20:00,53.0,33.8,30.06,South,180,9.0,18.0,48,0.00,,,0.00,Weather View 32 v70,2013-05-06 13:20:00,
2013-05-06 07:25:00,53.0,32.7,30.06,SE,135,5.0,16.0,46,0.00,,,0.00,Weather View 32 v70,2013-05-06 13:25:00,
2013-05-06 07:30:00,53.0,33.3,30.06,SSE,157,4.0,16.0,47,0.00,,,0.00,Weather View 32 v70,2013-05-06 13:30:00,
2013-05-06 07:35:00,53.0,33.3,30.06,South,180,7.0,16.0,47,0.00,,,0.00,Weather View 32 v70,2013-05-06 13:35:00,
2013-05-06 07:40:00,52.0,33.4,30.06,SE,135,6.0,16.0,49,0.00,,,0.00,Weather View 32 v70,2013-05-06 13:40:00,
2013-05-06 07:45:00,52.0,34.4,30.06,SSE,157,4.0,16.0,51,0.00,,,0.00,Weather View 32 v70,2013-05-06 13:45:00,
2013-05-06 07:50:00,51.0,34.4,30.06,South,180,8.0,16.0,53,0.00,,,0.00,Weather View 32 v70,2013-05-06 13:50:00,
2013-05-06 07:55:00,50.0,35.3,30.06,SE,135,5.0,16.0,57,0.00,,,0.00,Weather View 32 v70,2013-05-06 13:55:00,
2013-05-06 08:00:00,50.0,35.3,30.07,SE,135,7.0,16.0,57,0.00,,,0.00,Weather View 32 v70,2013-05-06 14:00:00,
2013-05-06 08:05:00,49.0,35.7,30.07,SE,135,3.0,16.0,60,0.00,,,0.00,Weather View 32 v70,2013-05-06 14:05:00,
2013-05-06 08:10:00,49.0,34.8,30.06,ESE,112,6.0,16.0,58,0.00,,,0.00,Weather View 32 v70,2013-05-06 14:10:00,
2013-05-06 08:15:00,49.0,35.7,30.06,ESE,112,5.0,16.0,60,0.00,,,0.00,Weather View 32 v70,2013-05-06 14:15:00,
2013-05-06 08:19:00,50.0,35.8,30.07,East,90,7.0,16.0,58,0.00,,,0.00,Weather View 32 v70,2013-05-06 14:19:00,
2013-05-06 08:24:00,50.0,37.5,30.07,East,90,6.0,16.0,62,0.00,,,0.00,Weather View 32 v70,2013-05-06 14:24:00,
2013-05-06 08:29:00,50.0,37.9,30.06,ENE,67,8.0,16.0,63,0.00,,,0.00,Weather View 32 v70,2013-05-06 14:29:00,
2013-05-06 08:34:00,50.0,37.9,30.06,NE,45,8.0,16.0,63,0.00,,,0.00,Weather View 32 v70,2013-05-06 14:34:00,
2013-05-06 08:39:00,50.0,37.9,30.06,NE,45,8.0,16.0,63,0.00,,,0.00,Weather View 32 v70,2013-05-06 14:39:00,
2013-05-06 08:44:00,50.0,33.5,30.06,North,360,10.0,16.0,53,0.00,,,0.00,Weather View 32 v70,2013-05-06 14:44:00,
2013-05-06 08:49:00,51.0,38.0,30.05,NW,315,6.0,15.0,61,0.00,,,0.00,Weather View 32 v70,2013-05-06 14:49:00,
2013-05-06 08:54:00,50.0,36.6,30.05,NW,315,4.0,15.0,60,0.00,,,0.00,Weather View 32 v70,2013-05-06 14:54:00,
2013-05-06 08:59:00,51.0,37.6,30.05,North,360,5.0,15.0,60,0.00,,,0.00,Weather View 32 v70,2013-05-06 14:59:00,
2013-05-06 09:04:00,51.0,38.8,30.05,North,360,7.0,15.0,63,0.00,,,0.00,Weather View 32 v70,2013-05-06 15:04:00,
2013-05-06 09:09:00,51.0,39.6,30.06,NE,45,7.0,15.0,65,0.00,,,0.00,Weather View 32 v70,2013-05-06 15:09:00,
2013-05-06 09:14:00,51.0,40.4,30.06,NNE,22,7.0,15.0,67,0.00,,,0.00,Weather View 32 v70,2013-05-06 15:14:00,
2013-05-06 09:19:00,51.0,38.8,30.06,NE,45,8.0,15.0,63,0.00,,,0.00,Weather View 32 v70,2013-05-06 15:19:00,
2013-05-06 09:24:00,52.0,39.8,30.06,NNE,22,7.0,15.0,63,0.00,,,0.00,Weather View 32 v70,2013-05-06 15:24:00,
2013-05-06 09:29:00,52.0,38.9,30.06,NNE,22,5.0,15.0,61,0.00,,,0.00,Weather View 32 v70,2013-05-06 15:29:00,
2013-05-06 09:34:00,52.0,38.9,30.06,NNE,22,10.0,17.0,61,0.00,,,0.00,Weather View 32 v70,2013-05-06 15:34:00,
2013-05-06 09:39:00,52.0,38.9,30.07,NE,45,9.0,17.0,61,0.00,,,0.00,Weather View 32 v70,2013-05-06 15:39:00,
2013-05-06 09:44:00,52.0,37.7,30.07,ENE,67,10.0,17.0,58,0.00,,,0.00,Weather View 32 v70,2013-05-06 15:44:00,
2013-05-06 09:49:00,53.0,36.3,30.06,NE,45,8.0,17.0,53,0.00,,,0.00,Weather View 32 v70,2013-05-06 15:49:00,
2013-05-06 09:54:00,53.0,38.1,30.06,NE,45,10.0,17.0,57,0.00,,,0.00,Weather View 32 v70,2013-05-06 15:54:00,
2013-05-06 09:59:00,53.0,36.8,30.07,ENE,67,6.0,17.0,54,0.00,,,0.00,Weather View 32 v70,2013-05-06 15:59:00,
2013-05-06 10:04:00,53.0,37.7,30.07,ENE,67,4.0,17.0,56,0.00,,,0.00,Weather View 32 v70,2013-05-06 16:04:00,
2013-05-06 10:09:00,53.0,38.6,30.07,East,90,10.0,17.0,58,0.00,,,0.00,Weather View 32 v70,2013-05-06 16:09:00,
2013-05-06 10:14:00,52.0,38.1,30.07,NE,45,8.0,17.0,59,0.00,,,0.00,Weather View 32 v70,2013-05-06 16:14:00,
2013-05-06 10:19:00,52.0,40.6,30.08,ENE,67,6.0,17.0,65,0.00,,,0.00,Weather View 32 v70,2013-05-06 16:19:00,
2013-05-06 10:24:00,51.0,38.0,30.08,ENE,67,5.0,17.0,61,0.00,,,0.00,Weather View 32 v70,2013-05-06 16:24:00,
2013-05-06 10:29:00,52.0,37.7,30.07,ENE,67,3.0,17.0,58,0.00,,,0.00,Weather View 32 v70,2013-05-06 16:29:00,
2013-05-06 10:34:00,52.0,38.9,30.07,NNE,22,10.0,15.0,61,0.00,,,0.00,Weather View 32 v70,2013-05-06 16:34:00,
2013-05-06 10:39:00,53.0,36.3,30.07,NW,315,4.0,14.0,53,0.00,,,0.00,Weather View 32 v70,2013-05-06 16:39:00,
2013-05-06 10:44:00,53.0,38.1,30.07,North,360,7.0,14.0,57,0.00,,,0.00,Weather View 32 v70,2013-05-06 16:44:00,
2013-05-06 10:49:00,54.0,36.7,30.06,North,360,5.0,14.0,52,0.00,,,0.00,Weather View 32 v70,2013-05-06 16:49:00,
2013-05-06 10:54:00,54.0,35.2,30.06,North,360,5.0,13.0,49,0.00,,,0.00,Weather View 32 v70,2013-05-06 16:54:00,
2013-05-06 10:59:00,55.0,35.6,30.06,NNW,337,3.0,13.0,48,0.00,,,0.00,Weather View 32 v70,2013-05-06 16:59:00,
2013-05-06 11:04:00,55.0,33.4,30.06,NW,315,4.0,13.0,44,0.00,,,0.00,Weather View 32 v70,2013-05-06 17:04:00,
2013-05-06 11:09:00,56.0,36.5,30.06,SW,225,5.0,11.0,48,0.00,,,0.00,Weather View 32 v70,2013-05-06 17:09:00,
2013-05-06 11:14:00,55.0,38.1,30.06,West,270,5.0,15.0,53,0.00,,,0.00,Weather View 32 v70,2013-05-06 17:14:00,
2013-05-06 11:19:00,55.0,37.2,30.07,SW,225,13.0,15.0,51,0.00,,,0.00,Weather View 32 v70,2013-05-06 17:19:00,
2013-05-06 11:24:00,54.0,39.1,30.07,SW,225,7.0,15.0,57,0.00,,,0.00,Weather View 32 v70,2013-05-06 17:24:00,
2013-05-06 11:29:00,54.0,39.5,30.08,SW,225,9.0,15.0,58,0.00,,,0.00,Weather View 32 v70,2013-05-06 17:29:00,
2013-05-06 11:34:00,54.0,39.5,30.08,SW,225,9.0,15.0,58,0.00,,,0.00,Weather View 32 v70,2013-05-06 17:34:00,
2013-05-06 11:39:00,53.0,38.6,30.08,SW,225,3.0,15.0,58,0.00,,,0.00,Weather View 32 v70,2013-05-06 17:39:00,
2013-05-06 11:44:00,53.0,39.9,30.08,WSW,247,5.0,15.0,61,0.00,,,0.00,Weather View 32 v70,2013-05-06 17:44:00,
2013-05-06 11:49:00,53.0,40.3,30.08,SW,225,5.0,15.0,62,0.00,,,0.00,Weather View 32 v70,2013-05-06 17:49:00,
2013-05-06 11:54:00,52.0,39.8,30.08,West,270,5.0,15.0,63,0.00,,,0.00,Weather View 32 v70,2013-05-06 17:54:00,
2013-05-06 11:59:00,52.0,40.2,30.09,West,270,5.0,15.0,64,0.00,,,0.00,Weather View 32 v70,2013-05-06 17:59:00,
2013-05-06 12:04:00,52.0,41.0,30.09,WNW,292,4.0,15.0,66,0.00,,,0.00,Weather View 32 v70,2013-05-06 18:04:00,
2013-05-06 12:09:00,52.0,41.4,30.09,SW,225,4.0,15.0,67,0.00,,,0.00,Weather View 32 v70,2013-05-06 18:09:00,
2013-05-06 12:14:00,51.0,41.5,30.09,West,270,3.0,15.0,70,0.01,,,0.01,Weather View 32 v70,2013-05-06 18:14:00,
2013-05-06 12:19:00,51.0,42.3,30.09,NW,315,8.0,15.0,72,0.01,,,0.01,Weather View 32 v70,2013-05-06 18:19:00,
2013-05-06 12:24:00,50.0,42.7,30.09,WNW,292,6.0,12.0,76,0.01,,,0.01,Weather View 32 v70,2013-05-06 18:24:00,
2013-05-06 12:29:00,50.0,43.4,30.09,West,270,5.0,10.0,78,0.01,,,0.01,Weather View 32 v70,2013-05-06 18:29:00,
2013-05-06 12:34:00,50.0,44.4,30.09,WNW,292,5.0,11.0,81,0.01,,,0.01,Weather View 32 v70,2013-05-06 18:34:00,
2013-05-06 12:39:00,50.0,45.0,30.10,West,270,5.0,13.0,83,0.01,,,0.01,Weather View 32 v70,2013-05-06 18:39:00,
2013-05-06 12:44:00,49.0,44.1,30.10,West,270,7.0,13.0,83,0.02,,,0.02,Weather View 32 v70,2013-05-06 18:44:00,
2013-05-06 12:49:00,49.0,44.7,30.10,West,270,0.0,13.0,85,0.02,,,0.02,Weather View 32 v70,2013-05-06 18:49:00,
2013-05-06 12:54:00,49.0,44.7,30.10,WSW,247,4.0,13.0,85,0.02,,,0.02,Weather View 32 v70,2013-05-06 18:54:00,
2013-05-06 12:59:00,48.0,44.0,30.10,West,270,5.0,13.0,86,0.03,,,0.03,Weather View 32 v70,2013-05-06 18:59:00,
2013-05-06 13:04:00,48.0,44.6,30.10,West,270,5.0,15.0,88,0.03,,,0.03,Weather View 32 v70,2013-05-06 19:04:00,
2013-05-06 13:09:00,47.0,43.6,30.10,West,270,5.0,16.0,88,0.04,,,0.04,Weather View 32 v70,2013-05-06 19:09:00,
2013-05-06 13:14:00,47.0,44.2,30.10,NW,315,7.0,16.0,90,0.03,,,0.04,Weather View 32 v70,2013-05-06 19:14:00,
2013-05-06 13:19:00,47.0,44.2,30.10,West,270,6.0,16.0,90,0.03,,,0.04,Weather View 32 v70,2013-05-06 19:19:00,
2013-05-06 13:24:00,47.0,44.5,30.10,NW,315,6.0,16.0,91,0.03,,,0.04,Weather View 32 v70,2013-05-06 19:24:00,
2013-05-06 13:29:00,47.0,44.5,30.09,NW,315,10.0,16.0,91,0.03,,,0.04,Weather View 32 v70,2013-05-06 19:29:00,
2013-05-06 13:34:00,46.0,43.8,30.09,NW,315,9.0,16.0,92,0.03,,,0.04,Weather View 32 v70,2013-05-06 19:34:00,
2013-05-06 13:39:00,47.0,44.8,30.09,NW,315,10.0,16.0,92,0.03,,,0.04,Weather View 32 v70,2013-05-06 19:39:00,
2013-05-06 13:44:00,46.0,43.5,30.09,West,270,6.0,16.0,91,0.02,,,0.04,Weather View 32 v70,2013-05-06 19:44:00,
2013-05-06 13:49:00,47.0,44.2,30.10,WNW,292,8.0,16.0,90,0.02,,,0.04,Weather View 32 v70,2013-05-06 19:49:00,
2013-05-06 13:54:00,47.0,43.6,30.10,NW,315,11.0,16.0,88,0.02,,,0.04,Weather View 32 v70,2013-05-06 19:54:00,
2013-05-06 13:59:00,48.0,43.7,30.09,WNW,292,2.0,16.0,85,0.01,,,0.04,Weather View 32 v70,2013-05-06 19:59:00,
2013-05-06 14:04:00,48.0,42.8,30.09,NW,315,7.0,16.0,82,0.01,,,0.04,Weather View 32 v70,2013-05-06 20:04:00,
2013-05-06 14:09:00,49.0,42.8,30.09,NW,315,8.0,13.0,79,0.00,,,0.04,Weather View 32 v70,2013-05-06 20:09:00,
2013-05-06 14:14:00,49.0,41.4,30.09,NW,315,7.0,13.0,75,0.00,,,0.04,Weather View 32 v70,2013-05-06 20:14:00,
2013-05-06 14:19:00,50.0,41.0,30.09,North,360,6.0,13.0,71,0.00,,,0.04,Weather View 32 v70,2013-05-06 20:19:00,
2013-05-06 14:24:00,51.0,41.9,30.09,North,360,7.0,13.0,71,0.00,,,0.04,Weather View 32 v70,2013-05-06 20:24:00,
2013-05-06 14:29:00,51.0,41.5,30.08,West,270,2.0,13.0,70,0.00,,,0.04,Weather View 32 v70,2013-05-06 20:29:00,
2013-05-06 14:34:00,51.0,41.5,30.08,NW,315,3.0,13.0,70,0.00,,,0.04,Weather View 32 v70,2013-05-06 20:34:00,
2013-05-06 14:39:00,52.0,39.4,30.08,North,360,7.0,13.0,62,0.00,,,0.04,Weather View 32 v70,2013-05-06 20:39:00,
2013-05-06 14:44:00,53.0,40.7,30.08,NW,315,8.0,13.0,63,0.00,,,0.04,Weather View 32 v70,2013-05-06 20:44:00,
2013-05-06 14:49:00,54.0,40.4,30.07,NW,315,8.0,13.0,60,0.00,,,0.04,Weather View 32 v70,2013-05-06 20:49:00,
2013-05-06 14:54:00,54.0,40.4,30.07,NNE,22,1.0,13.0,60,0.00,,,0.04,Weather View 32 v70,2013-05-06 20:54:00,
2013-05-06 14:59:00,55.0,39.6,30.07,North,360,0.0,11.0,56,0.00,,,0.04,Weather View 32 v70,2013-05-06 20:59:00,
2013-05-06 15:04:00,55.0,40.0,30.07,NW,315,0.0,11.0,57,0.00,,,0.04,Weather View 32 v70,2013-05-06 21:04:00,
2013-05-06 15:09:00,56.0,40.0,30.06,NE,45,6.0,9.0,55,0.00,,,0.04,Weather View 32 v70,2013-05-06 21:09:00,
2013-05-06 15:14:00,55.0,40.5,30.06,ENE,67,4.0,9.0,58,0.00,,,0.04,Weather View 32 v70,2013-05-06 21:14:00,
2013-05-06 15:19:00,56.0,38.6,30.05,North,360,4.0,9.0,52,0.00,,,0.04,Weather View 32 v70,2013-05-06 21:19:00,
2013-05-06 15:24:00,56.0,38.1,30.05,North,360,5.0,9.0,51,0.00,,,0.04,Weather View 32 v70,2013-05-06 21:24:00,
2013-05-06 15:29:00,57.0,39.0,30.05,NNW,337,5.0,9.0,51,0.00,,,0.04,Weather View 32 v70,2013-05-06 21:29:00,
2013-05-06 15:34:00,57.0,39.0,30.05,SE,135,6.0,9.0,51,0.00,,,0.04,Weather View 32 v70,2013-05-06 21:34:00,
2013-05-06 15:39:00,58.0,37.8,30.05,East,90,5.0,10.0,47,0.00,,,0.04,Weather View 32 v70,2013-05-06 21:39:00,
2013-05-06 15:44:00,58.0,37.3,30.05,East,90,5.0,10.0,46,0.00,,,0.04,Weather View 32 v70,2013-05-06 21:44:00,
2013-05-06 15:49:00,58.0,37.3,30.04,East,90,3.0,10.0,46,0.00,,,0.04,Weather View 32 v70,2013-05-06 21:49:00,
2013-05-06 15:54:00,59.0,37.6,30.04,East,90,6.0,10.0,45,0.00,,,0.04,Weather View 32 v70,2013-05-06 21:54:00,
2013-05-06 15:59:00,59.0,37.1,30.03,ENE,67,3.0,10.0,44,0.00,,,0.04,Weather View 32 v70,2013-05-06 21:59:00,
2013-05-06 16:04:00,59.0,38.8,30.03,East,90,3.0,10.0,47,0.00,,,0.04,Weather View 32 v70,2013-05-06 22:04:00,
2013-05-06 16:09:00,59.0,37.1,30.03,ENE,67,8.0,11.0,44,0.00,,,0.04,Weather View 32 v70,2013-05-06 22:09:00,
2013-05-06 16:14:00,58.0,36.7,30.03,ENE,67,4.0,11.0,45,0.00,,,0.04,Weather View 32 v70,2013-05-06 22:14:00,
2013-05-06 16:19:00,59.0,35.9,30.02,East,90,6.0,11.0,42,0.00,,,0.04,Weather View 32 v70,2013-05-06 22:19:00,
2013-05-06 16:24:00,59.0,35.9,30.02,SE,135,10.0,11.0,42,0.00,,,0.04,Weather View 32 v70,2013-05-06 22:24:00,
2013-05-06 16:29:00,59.0,34.7,30.02,SE,135,4.0,11.0,40,0.00,,,0.04,Weather View 32 v70,2013-05-06 22:29:00,
2013-05-06 16:34:00,59.0,34.7,30.02,NE,45,4.0,11.0,40,0.00,,,0.04,Weather View 32 v70,2013-05-06 22:34:00,
2013-05-06 16:39:00,59.0,35.9,30.02,NE,45,5.0,11.0,42,0.00,,,0.04,Weather View 32 v70,2013-05-06 22:39:00,
2013-05-06 16:44:00,59.0,37.6,30.02,North,360,1.0,11.0,45,0.00,,,0.04,Weather View 32 v70,2013-05-06 22:44:00,
2013-05-06 16:49:00,59.0,37.6,30.02,NE,45,6.0,12.0,45,0.00,,,0.04,Weather View 32 v70,2013-05-06 22:49:00,
2013-05-06 16:54:00,59.0,37.6,30.02,West,270,3.0,12.0,45,0.00,,,0.04,Weather View 32 v70,2013-05-06 22:54:00,
2013-05-06 16:59:00,60.0,35.6,30.02,SSW,202,6.0,12.0,40,0.00,,,0.04,Weather View 32 v70,2013-05-06 22:59:00,
2013-05-06 17:04:00,60.0,36.8,30.02,NE,45,1.0,12.0,42,0.00,,,0.04,Weather View 32 v70,2013-05-06 23:04:00,
2013-05-06 17:09:00,60.0,35.6,30.02,SSW,202,5.0,12.0,40,0.00,,,0.04,Weather View 32 v70,2013-05-06 23:09:00,
2013-05-06 17:14:00,60.0,35.6,30.02,East,90,7.0,12.0,40,0.00,,,0.04,Weather View 32 v70,2013-05-06 23:14:00,
2013-05-06 17:19:00,60.0,36.8,30.01,East,90,4.0,12.0,42,0.00,,,0.04,Weather View 32 v70,2013-05-06 23:19:00,
2013-05-06 17:24:00,60.0,35.6,30.01,East,90,7.0,12.0,40,0.00,,,0.04,Weather View 32 v70,2013-05-06 23:24:00,
2013-05-06 17:29:00,61.0,37.1,30.01,East,90,0.0,12.0,41,0.00,,,0.04,Weather View 32 v70,2013-05-06 23:29:00,
2013-05-06 17:35:00,60.0,36.8,30.01,ENE,67,7.0,12.0,42,0.00,,,0.04,Weather View 32 v70,2013-05-06 23:35:00,
2013-05-06 17:40:00,60.0,36.8,30.01,SSE,157,5.0,12.0,42,0.00,,,0.04,Weather View 32 v70,2013-05-06 23:40:00,
2013-05-06 17:45:00,60.0,36.2,30.01,ESE,112,4.0,12.0,41,0.00,,,0.04,Weather View 32 v70,2013-05-06 23:45:00,
2013-05-06 17:50:00,60.0,33.6,30.02,South,180,0.0,12.0,37,0.00,,,0.04,Weather View 32 v70,2013-05-06 23:50:00,
2013-05-06 17:55:00,60.0,34.3,30.02,ENE,67,4.0,12.0,38,0.00,,,0.04,Weather View 32 v70,2013-05-06 23:55:00,
2013-05-06 18:00:00,60.0,34.3,30.01,NNE,22,4.0,12.0,38,0.00,,,0.04,Weather View 32 v70,2013-05-07 00:00:00,
2013-05-06 18:05:00,60.0,34.9,30.01,NE,45,4.0,12.0,39,0.00,,,0.04,Weather View 32 v70,2013-05-07 00:05:00,
2013-05-06 18:10:00,61.0,35.2,30.00,West,270,5.0,12.0,38,0.00,,,0.04,Weather View 32 v70,2013-05-07 00:10:00,
2013-05-06 18:15:00,61.0,33.8,30.00,South,180,4.0,12.0,36,0.00,,,0.04,Weather View 32 v70,2013-05-07 00:15:00,
2013-05-06 18:20:00,61.0,33.1,30.00,SE,135,5.0,12.0,35,0.00,,,0.04,Weather View 32 v70,2013-05-07 00:20:00,
2013-05-06 18:25:00,61.0,33.1,30.00,East,90,1.0,12.0,35,0.00,,,0.04,Weather View 32 v70,2013-05-07 00:25:00,
2013-05-06 18:30:00,61.0,34.5,30.00,East,90,5.0,12.0,37,0.00,,,0.04,Weather View 32 v70,2013-05-07 00:30:00,
2013-05-06 18:35:00,61.0,35.8,30.00,East,90,7.0,12.0,39,0.00,,,0.04,Weather View 32 v70,2013-05-07 00:35:00,
2013-05-06 18:40:00,60.0,35.6,30.01,East,90,6.0,10.0,40,0.00,,,0.04,Weather View 32 v70,2013-05-07 00:40:00,
2013-05-06 18:45:00,59.0,34.7,30.01,East,90,6.0,10.0,40,0.00,,,0.04,Weather View 32 v70,2013-05-07 00:45:00,
2013-05-06 18:50:00,59.0,35.9,30.01,East,90,6.0,10.0,42,0.00,,,0.04,Weather View 32 v70,2013-05-07 00:50:00,
2013-05-06 18:55:00,59.0,35.3,30.01,East,90,7.0,10.0,41,0.00,,,0.04,Weather View 32 v70,2013-05-07 00:55:00,
2013-05-06 19:00:00,59.0,35.9,30.02,ENE,67,3.0,10.0,42,-0.04,,,0.04,Weather View 32 v70,2013-05-07 01:00:00,
2013-05-06 19:05:00,58.0,34.4,30.02,East,90,2.0,10.0,41,0.00,,,0.04,Weather View 32 v70,2013-05-07 01:05:00,
2013-05-06 19:10:00,58.0,34.4,30.02,East,90,3.0,10.0,41,0.00,,,0.04,Weather View 32 v70,2013-05-07 01:10:00,
2013-05-06 19:15:00,58.0,34.4,30.02,East,90,0.0,10.0,41,0.00,,,0.04,Weather View 32 v70,2013-05-07 01:15:00,
2013-05-06 19:20:00,58.0,35.0,30.03,East,90,0.0,10.0,42,0.00,,,0.04,Weather View 32 v70,2013-05-07 01:20:00,
2013-05-06 19:25:00,58.0,36.2,30.03,East,90,3.0,10.0,44,0.00,,,0.04,Weather View 32 v70,2013-05-07 01:25:00,
2013-05-06 19:30:00,58.0,36.7,30.02,East,90,7.0,10.0,45,0.00,,,0.04,Weather View 32 v70,2013-05-07 01:30:00,
2013-05-06 19:35:00,57.0,35.8,30.02,East,90,4.0,10.0,45,-0.04,,,0.04,Weather View 32 v70,2013-05-07 01:35:00,
2013-05-06 19:40:00,57.0,35.3,30.02,East,90,6.0,10.0,44,0.00,,,0.04,Weather View 32 v70,2013-05-07 01:40:00,
2013-05-06 19:45:00,57.0,34.7,30.02,ENE,67,5.0,10.0,43,0.00,,,0.04,Weather View 32 v70,2013-05-07 01:45:00,
2013-05-06 19:50:00,57.0,35.3,30.02,East,90,5.0,10.0,44,0.00,,,0.04,Weather View 32 v70,2013-05-07 01:50:00,
2013-05-06 19:55:00,57.0,34.7,30.02,East,90,5.0,10.0,43,0.00,,,0.04,Weather View 32 v70,2013-05-07 01:55:00,
2013-05-06 20:00:00,57.0,34.7,30.03,ENE,67,4.0,10.0,43,0.00,,,0.04,Weather View 32 v70,2013-05-07 02:00:00,
2013-05-06 20:05:00,57.0,34.7,30.03,ENE,67,4.0,10.0,43,0.00,,,0.04,Weather View 32 v70,2013-05-07 02:05:00,
2013-05-06 20:10:00,57.0,34.7,30.03,ENE,67,2.0,10.0,43,0.00,,,0.04,Weather View 32 v70,2013-05-07 02:10:00,
2013-05-06 20:15:00,57.0,35.3,30.03,ENE,67,4.0,10.0,44,0.00,,,0.04,Weather View 32 v70,2013-05-07 02:15:00,
2013-05-06 20:20:00,57.0,35.3,30.03,ENE,67,3.0,10.0,44,0.00,,,0.04,Weather View 32 v70,2013-05-07 02:20:00,
2013-05-06 20:25:00,57.0,35.3,30.03,NNE,22,3.0,10.0,44,-0.04,,,0.04,Weather View 32 v70,2013-05-07 02:25:00,
2013-05-06 20:30:00,57.0,35.3,30.04,NNE,22,0.0,10.0,44,0.00,,,0.04,Weather View 32 v70,2013-05-07 02:30:00,
2013-05-06 20:35:00,56.0,35.5,30.04,NNE,22,4.0,9.0,46,-0.04,,,0.04,Weather View 32 v70,2013-05-07 02:35:00,
2013-05-06 20:40:00,56.0,37.1,30.04,NNW,337,4.0,9.0,49,0.00,,,0.04,Weather View 32 v70,2013-05-07 02:40:00,
2013-05-06 20:45:00,55.0,37.2,30.04,North,360,7.0,9.0,51,-0.04,,,0.04,Weather View 32 v70,2013-05-07 02:45:00,
2013-05-06 20:50:00,55.0,36.7,30.04,NNE,22,5.0,9.0,50,0.00,,,0.04,Weather View 32 v70,2013-05-07 02:50:00,
2013-05-06 20:55:00,55.0,37.2,30.04,North,360,8.0,10.0,51,0.00,,,0.04,Weather View 32 v70,2013-05-07 02:55:00,
2013-05-06 21:00:00,55.0,37.2,30.05,NNE,22,6.0,10.0,51,-0.04,,,0.04,Weather View 32 v70,2013-05-07 03:00:00,
2013-05-06 21:05:00,55.0,38.1,30.05,North,360,7.0,10.0,53,0.00,,,0.04,Weather View 32 v70,2013-05-07 03:05:00,
2013-05-06 21:10:00,55.0,38.1,30.04,NNE,22,7.0,10.0,53,0.00,,,0.04,Weather View 32 v70,2013-05-07 03:10:00,
2013-05-06 21:15:00,54.0,37.2,30.04,NE,45,5.0,10.0,53,0.00,,,0.04,Weather View 32 v70,2013-05-07 03:15:00,
2013-05-06 21:20:00,54.0,36.7,30.05,North,360,7.0,10.0,52,0.00,,,0.04,Weather View 32 v70,2013-05-07 03:20:00,
2013-05-06 21:25:00,54.0,36.7,30.05,NE,45,6.0,10.0,52,0.00,,,0.04,Weather View 32 v70,2013-05-07 03:25:00,
2013-05-06 21:30:00,55.0,36.7,30.06,NE,45,8.0,11.0,50,0.00,,,0.04,Weather View 32 v70,2013-05-07 03:30:00,
2013-05-06 21:35:00,54.0,36.2,30.06,NNE,22,5.0,11.0,51,-0.04,,,0.04,Weather View 32 v70,2013-05-07 03:35:00,
2013-05-06 21:40:00,55.0,36.7,30.06,North,360,8.0,11.0,50,0.00,,,0.04,Weather View 32 v70,2013-05-07 03:40:00,
2013-05-06 21:45:00,54.0,37.7,30.06,NNE,22,8.0,15.0,54,-0.04,,,0.04,Weather View 32 v70,2013-05-07 03:45:00,
2013-05-06 21:50:00,54.0,38.2,30.06,NNE,22,6.0,15.0,55,0.00,,,0.04,Weather View 32 v70,2013-05-07 03:50:00,
2013-05-06 21:55:00,53.0,37.7,30.06,NNE,22,6.0,15.0,56,0.00,,,0.04,Weather View 32 v70,2013-05-07 03:55:00,
2013-05-06 21:59:00,53.0,38.6,30.07,NNE,22,7.0,15.0,58,0.00,,,0.04,Weather View 32 v70,2013-05-07 03:59:00,
2013-05-06 22:01:00,53.0,39.0,30.07,North,360,8.0,15.0,59,0.00,,,0.04,Weather View 32 v70,2013-05-07 04:01:00,
2013-05-06 22:06:00,53.0,39.9,30.07,NNE,22,13.0,15.0,61,0.00,,,0.04,Weather View 32 v70,2013-05-07 04:06:00,
2013-05-06 22:11:00,53.0,41.9,30.07,NE,45,5.0,15.0,66,0.00,,,0.04,Weather View 32 v70,2013-05-07 04:11:00,
2013-05-06 22:16:00,52.0,41.0,30.07,NE,45,6.0,15.0,66,0.00,,,0.04,Weather View 32 v70,2013-05-07 04:16:00,
2013-05-06 22:21:00,52.0,41.4,30.08,East,90,6.0,15.0,67,0.00,,,0.04,Weather View 32 v70,2013-05-07 04:21:00,
2013-05-06 22:26:00,52.0,42.1,30.08,NE,45,4.0,15.0,69,0.00,,,0.04,Weather View 32 v70,2013-05-07 04:26:00,
2013-05-06 22:31:00,52.0,42.1,30.08,NE,45,4.0,15.0,69,0.00,,,0.04,Weather View 32 v70,2013-05-07 04:31:00,
2013-05-06 22:36:00,52.0,41.0,30.08,NE,45,5.0,15.0,66,0.00,,,0.04,Weather View 32 v70,2013-05-07 04:36:00,
2013-05-06 22:41:00,52.0,41.0,30.08,East,90,5.0,15.0,66,0.00,,,0.04,Weather View 32 v70,2013-05-07 04:41:00,
2013-05-06 22:46:00,52.0,41.0,30.08,NE,45,6.0,15.0,66,0.00,,,0.04,Weather View 32 v70,2013-05-07 04:46:00,
2013-05-06 22:51:00,52.0,41.4,30.09,East,90,7.0,14.0,67,0.00,,,0.04,Weather View 32 v70,2013-05-07 04:51:00,
2013-05-06 22:56:00,52.0,42.1,30.09,NNE,22,5.0,14.0,69,0.00,,,0.04,Weather View 32 v70,2013-05-07 04:56:00,
2013-05-06 23:01:00,51.0,42.3,30.08,NNE,22,6.0,13.0,72,0.00,,,0.04,Weather View 32 v70,2013-05-07 05:01:00,
2013-05-06 23:07:00,52.0,43.2,30.08,NNE,22,5.0,13.0,72,0.00,,,0.04,Weather View 32 v70,2013-05-07 05:07:00,
2013-05-06 23:12:00,51.0,42.6,30.09,NE,45,0.0,10.0,73,0.00,,,0.04,Weather View 32 v70,2013-05-07 05:12:00,
2013-05-06 23:17:00,50.0,42.4,30.09,NE,45,2.0,9.0,75,0.00,,,0.04,Weather View 32 v70,2013-05-07 05:17:00,
2013-05-06 23:22:00,50.0,42.4,30.09,NE,45,4.0,9.0,75,0.00,,,0.04,Weather View 32 v70,2013-05-07 05:22:00,
2013-05-06 23:27:00,50.0,42.7,30.09,NE,45,4.0,9.0,76,0.00,,,0.04,Weather View 32 v70,2013-05-07 05:27:00,
2013-05-06 23:32:00,50.0,43.1,30.10,NE,45,0.0,9.0,77,0.00,,,0.04,Weather View 32 v70,2013-05-07 05:32:00,
2013-05-06 23:37:00,50.0,43.1,30.10,NE,45,3.0,9.0,77,0.00,,,0.04,Weather View 32 v70,2013-05-07 05:37:00,
2013-05-06 23:41:00,50.0,42.0,30.10,NNW,337,5.0,8.0,74,0.00,,,0.04,Weather View 32 v70,2013-05-07 05:41:00,
2013-05-06 23:46:00,50.0,42.0,30.10,NNE,22,5.0,8.0,74,0.00,,,0.04,Weather View 32 v70,2013-05-07 05:46:00,
2013-05-06 23:51:00,50.0,42.4,30.10,NNE,22,1.0,8.0,75,0.00,,,0.04,Weather View 32 v70,2013-05-07 05:51:00,
2013-05-06 23:56:00,50.0,42.7,30.10,NE,45,0.0,8.0,76,0.00,,,0.04,Weather View 32 v70,2013-05-07 05:56:00,